Theta_e
326 329 329 330 339 340 336 333 328 331 332 331 335 336 336 337 340 346 335 335 340 341 339 338 337 336 335 334 332 332 331 332 332 332 330 332 331 331 331 330 331 331 330 329 329 330 329 329 325
324 328 329 331 338 338 339 330 330 329 334 336 334 335 336 338 337 335 333 334 340 341 338 338 337 335 333 331 331 330 330 330 330 330 329 330 330 331 330 331 331 330 329 329 330 330 329 329 328
324 328 331 335 337 339 336 332 329 329 330 334 334 334 335 338 336 334 336 336 340 341 339 338 336 334 332 330 330 330 330 331 330 329 329 329 330 330 330 330 330 329 329 330 330 329 330 329 327
324 329 330 333 337 333 331 330 330 329 329 331 332 335 336 336 335 337 334 336 341 339 340 338 336 333 330 328 329 329 329 330 329 330 329 329 330 330 330 329 329 329 330 330 329 329 329 329 327
322 328 333 332 332 330 329 328 328 330 329 333 334 336 340 335 336 336 334 335 339 338 340 337 336 332 328 326 328 328 329 329 329 329 329 329 329 329 329 329 329 329 329 329 327 329 329 328 327
323 325 331 331 330 327 326 327 328 329 330 330 336 337 339 335 336 336 334 335 338 338 339 336 336 333 328 326 328 328 328 329 329 329 328 329 329 329 330 329 328 326 325 328 328 328 329 328 328
320 324 327 327 327 324 326 325 327 328 329 330 334 337 337 335 337 335 335 336 337 337 337 336 336 334 330 328 328 328 328 328 328 328 328 328 328 329 328 324 325 324 327 329 329 329 328 326 325
311 320 324 324 325 324 321 323 325 327 330 328 331 335 339 336 336 334 335 337 336 336 336 334 337 335 332 330 328 329 328 327 327 326 328 327 327 326 322 322 324 326 328 329 327 326 326 325 324
308 320 324 324 324 323 322 322 322 325 327 328 334 335 336 335 334 334 335 336 336 335 334 335 336 336 334 331 329 328 328 328 328 328 327 327 328 325 321 324 323 327 329 328 328 326 325 324 324
308 316 318 318 318 320 320 321 321 323 330 330 330 335 334 333 333 333 333 335 336 334 333 335 336 336 335 333 330 328 327 327 327 327 327 327 327 323 322 325 323 328 328 327 327 326 324 325 323
307 309 310 309 310 312 314 317 319 321 326 328 329 337 334 333 333 332 333 334 335 334 334 332 335 335 335 335 332 331 328 326 327 327 326 324 325 325 324 324 326 328 327 327 326 324 324 323 324
308 307 306 307 307 307 309 315 317 317 321 321 325 329 334 333 332 332 332 333 334 334 334 332 332 333 335 334 333 332 328 325 324 324 322 324 326 325 326 327 328 328 329 328 327 324 322 322 322
307 308 307 307 306 306 306 308 313 314 312 318 322 333 335 332 331 332 332 332 333 332 332 331 330 332 334 334 333 333 330 323 323 324 322 325 326 326 328 329 329 331 331 328 325 321 319 320 322
306 307 307 307 308 307 307 307 308 310 315 316 322 329 336 333 332 331 331 332 333 332 331 331 331 332 332 333 333 333 327 323 323 324 325 326 326 327 328 328 330 328 327 325 321 318 318 320 319
305 306 306 306 306 306 307 307 307 307 310 313 317 322 332 334 332 332 331 332 332 331 332 331 330 332 333 332 332 331 327 324 322 323 324 327 327 328 327 329 328 326 325 323 317 315 318 318 315
304 303 305 305 306 306 305 307 306 306 309 313 316 320 326 327 331 332 331 331 331 331 331 331 331 331 332 331 331 330 326 323 321 323 325 327 328 328 328 327 326 324 324 322 316 314 315 312 311
304 305 305 304 304 306 306 305 306 306 305 308 316 319 322 327 328 332 331 331 330 331 331 331 332 334 332 331 330 327 324 321 321 324 327 327 327 327 327 326 325 324 321 316 313 312 312 310 308
304 304 304 304 304 304 305 305 305 306 305 304 309 317 320 323 327 331 332 331 331 331 330 331 332 332 332 330 328 325 323 322 322 325 327 325 325 326 326 325 324 323 320 315 312 312 311 309 306
304 304 303 302 303 303 302 302 303 305 306 305 306 312 319 321 321 329 332 332 331 330 330 332 331 331 330 328 325 324 323 322 323 325 326 325 325 326 326 325 324 323 321 317 310 310 309 305 303
304 305 304 303 303 303 302 302 302 302 303 305 306 313 316 319 321 323 332 332 331 330 330 331 330 330 329 327 325 324 324 323 324 325 325 326 326 326 325 325 324 323 319 313 309 309 305 302 301
305 305 305 305 304 302 302 302 303 303 303 304 305 308 318 319 321 322 328 331 330 330 330 330 330 330 329 327 326 325 325 325 325 325 325 326 325 325 325 325 325 322 320 314 309 308 306 302 301
307 306 306 306 306 305 302 303 303 303 303 304 304 306 309 318 320 322 327 330 330 330 330 329 329 330 329 328 327 326 325 324 323 324 324 324 323 323 323 324 323 322 319 312 308 305 304 304 301
305 306 306 307 308 305 303 304 303 303 304 304 304 305 307 311 317 319 323 330 330 330 330 330 329 329 329 329 327 325 324 322 321 320 321 321 320 321 322 322 319 318 312 307 305 304 305 304 303
304 306 307 308 307 307 305 305 304 302 303 304 304 305 307 310 314 318 321 330 330 329 329 329 329 328 328 328 327 324 322 320 318 317 316 318 317 318 320 319 315 312 307 304 303 303 303 304 303
307 308 309 309 308 306 304 306 305 302 301 303 304 305 307 309 313 317 318 327 329 328 329 329 328 327 327 327 327 324 321 320 319 316 316 316 315 314 317 315 312 307 303 301 300 300 300 301 299
304 306 304 307 302 302 304 302 303 303 302 303 305 307 308 310 313 315 318 321 329 328 328 329 328 327 328 328 327 323 322 321 319 317 317 318 319 317 315 309 307 302 299 297 296 296 297 296 294
308 307 307 306 304 306 304 306 304 304 304 304 304 306 309 310 316 318 319 318 328 327 327 327 328 328 328 328 326 323 322 322 319 317 316 317 317 315 310 305 301 297 295 294 294 293 292 292 292
306 306 309 306 308 311 310 313 310 315 305 306 304 305 311 312 314 316 319 321 327 327 326 327 327 327 327 326 326 324 322 323 319 317 316 315 314 312 308 302 297 294 293 292 293 295 292 292 295
309 309 309 307 307 307 309 320 309 316 316 317 311 309 314 315 316 318 319 325 328 326 326 326 326 326 326 325 325 324 323 322 319 317 315 313 311 308 305 300 294 292 292 296 302 295 294 300 301
304 305 307 311 309 309 308 310 307 309 313 315 319 318 317 317 317 318 318 319 321 323 326 327 327 326 325 324 323 323 323 319 315 313 310 309 307 303 301 294 292 293 299 303 298 301 304 297 290
Wind_Speed
13 13 15 9 4 5 11 12 14 17 7 5 5 6 5 5 7 4 19 10 28 32 36 31 28 27 25 24 24 22 21 19 19 18 16 17 16 16 16 16 16 16 15 14 14 13 13 13 12
14 13 12 4 6 11 10 14 16 16 2 6 5 5 3 3 5 8 13 12 30 33 35 31 29 27 27 25 25 25 22 20 18 18 17 17 16 16 15 15 15 15 14 14 13 12 12 12 12
17 14 4 3 11 16 12 15 14 13 7 7 4 1 4 3 9 13 10 22 30 33 31 31 30 27 28 27 26 26 24 20 18 18 17 17 15 15 15 14 14 13 13 13 12 11 11 11 12
9 8 5 9 19 15 21 20 17 5 7 8 4 5 5 6 5 13 20 28 30 33 30 31 30 27 27 27 27 27 25 21 20 18 18 17 15 14 14 14 12 12 12 11 11 10 10 11 10
14 5 10 16 23 20 20 20 20 10 12 8 7 8 4 6 11 16 23 28 32 29 31 31 29 27 26 27 27 26 25 22 20 19 18 17 15 14 13 12 12 11 12 10 10 10 9 9 9
4 6 11 19 20 18 19 22 21 13 8 7 10 6 5 13 14 17 22 26 29 28 31 30 29 26 25 26 26 25 25 22 20 19 18 17 16 14 13 12 11 11 11 10 11 11 10 8 7
12 10 18 21 21 20 24 21 19 13 10 15 7 8 5 9 17 21 23 25 31 29 28 31 30 27 25 25 25 25 23 22 21 20 18 17 16 15 14 13 11 11 11 11 11 10 7 4 5
9 11 22 23 19 23 18 18 21 18 14 9 3 8 6 10 21 22 23 24 29 29 27 29 30 28 26 25 24 24 23 22 21 18 19 18 15 14 14 13 11 11 11 11 10 8 5 5 7
12 8 16 25 21 18 17 18 16 15 11 15 3 6 8 27 23 21 18 27 26 30 27 28 30 30 27 25 24 23 24 23 21 20 19 18 17 14 13 11 10 12 11 9 7 5 6 7 10
8 11 19 15 16 16 11 14 18 13 5 20 4 9 24 22 21 18 14 20 24 27 26 30 31 30 28 26 25 24 24 25 22 21 20 19 13 13 13 10 11 12 10 7 7 7 9 8 12
12 19 15 18 20 20 17 19 13 16 11 18 8 16 16 17 16 17 17 20 21 28 26 30 30 30 30 28 27 26 24 23 23 19 20 18 16 15 14 11 13 12 9 8 9 9 6 7 9
15 17 16 17 17 18 17 16 15 17 14 23 15 8 19 18 16 18 20 23 22 27 25 27 29 30 31 30 30 29 25 21 21 20 19 17 18 17 13 12 13 11 10 11 10 9 7 10 10
16 15 16 16 16 16 16 17 15 25 21 22 22 4 20 15 16 20 21 22 22 22 24 25 26 28 31 31 30 29 27 24 20 21 21 17 17 14 15 15 13 12 13 11 9 8 10 11 12
13 18 18 18 16 14 16 18 17 18 14 19 16 7 11 13 18 21 22 23 24 24 24 29 24 21 33 32 29 29 26 22 21 22 23 19 19 17 16 17 17 13 10 9 10 11 12 13 13
15 16 15 15 16 18 16 23 28 20 17 22 21 16 9 14 17 20 27 24 27 28 27 33 30 21 28 29 26 30 26 24 22 22 23 20 19 19 19 19 16 14 13 12 12 13 13 14 13
17 18 17 14 18 20 16 25 23 15 19 19 22 16 11 10 12 24 25 27 27 26 29 30 32 30 26 26 28 27 25 24 22 22 22 22 19 19 21 19 18 15 14 11 12 15 15 14 14
12 14 20 20 19 15 18 26 19 19 19 20 19 17 13 11 4 26 26 27 30 28 28 31 32 28 30 27 30 25 25 24 24 23 22 22 20 20 22 20 19 17 14 12 13 15 16 18 17
12 13 17 17 13 16 17 17 12 15 16 22 17 17 14 15 12 18 29 28 31 30 30 31 34 26 28 26 28 27 25 25 24 23 23 22 22 23 21 20 20 17 17 16 17 18 17 19 18
16 20 20 20 19 18 16 15 14 13 15 17 19 20 14 17 12 29 29 32 30 31 30 30 32 31 32 29 29 28 26 28 25 24 25 23 25 24 22 22 22 20 19 18 19 19 20 19 19
21 22 22 19 20 17 17 19 16 18 19 16 15 15 19 16 17 13 23 29 31 30 33 32 32 31 33 30 29 27 25 28 26 26 23 23 25 26 25 24 22 21 21 19 21 24 24 15 23
21 20 21 22 18 16 16 19 18 16 21 20 20 16 17 20 15 16 20 26 31 31 32 31 33 33 30 28 26 26 25 25 23 24 26 24 25 25 26 25 24 24 22 22 24 25 25 17 24
24 19 24 21 18 13 13 15 15 14 19 20 20 18 15 17 17 15 18 21 30 32 30 31 32 33 33 30 27 30 28 23 21 28 30 29 28 27 27 26 25 24 23 23 24 24 24 18 20
22 17 20 19 14 14 19 10 14 15 19 21 22 21 20 16 17 20 13 30 34 34 34 31 32 31 32 32 28 27 26 26 25 28 31 29 29 28 28 26 25 23 23 21 23 25 24 19 17
21 16 13 14 8 12 22 16 10 16 20 18 18 24 22 20 19 18 15 32 29 32 33 29 31 32 32 36 31 29 27 27 25 30 31 32 30 29 28 27 25 24 24 24 23 23 22 20 18
4 3 3 4 6 10 11 12 17 13 21 23 21 25 24 23 21 16 10 12 24 27 28 28 29 30 34 35 35 31 31 29 29 35 37 36 33 32 31 30 28 26 24 22 21 22 22 21 18
11 7 2 3 3 5 12 9 14 27 25 19 16 17 23 25 21 19 13 8 18 27 30 28 31 32 33 33 35 36 33 29 31 38 39 39 38 35 33 30 27 24 23 22 21 20 18 15 13
0 3 8 7 5 5 6 13 13 13 23 23 19 14 23 23 15 12 14 11 21 29 32 32 28 31 32 33 34 35 37 32 31 35 36 37 36 34 30 29 26 24 22 21 20 18 15 13 10
4 9 0 2 4 4 6 8 4 10 14 11 13 14 15 19 16 16 11 11 18 24 25 28 27 28 31 34 32 31 32 33 34 34 35 35 34 33 30 28 24 23 22 21 19 17 14 12 10
3 2 4 6 3 3 7 3 7 13 12 9 8 11 7 17 16 13 13 13 20 23 23 24 24 27 28 31 30 31 32 33 36 35 36 35 34 33 31 30 27 24 20 19 15 12 14 12 10
4 10 6 4 3 3 4 3 10 16 15 14 13 14 15 13 11 10 10 11 16 15 16 15 16 21 25 27 26 30 32 33 33 32 32 33 33 30 29 28 26 26 21 14 14 12 10 9 6
Wind_Direction
319 314 311 285 252 247 232 231 246 271 264 303 44 0 351 40 323 132 149 153 144 151 158 162 159 155 156 158 153 153 150 148 147 146 142 138 133 130 125 121 115 111 107 103 98 94 89 85 84
315 300 278 268 238 243 241 234 234 240 151 86 60 312 334 121 111 133 137 161 146 148 160 162 162 159 159 157 154 152 151 148 152 149 148 141 138 133 128 122 117 114 111 107 101 94 90 84 83
303 269 257 225 236 239 247 248 231 233 181 147 159 40 302 84 106 144 163 153 148 151 158 164 164 162 161 156 155 151 152 152 153 155 149 145 142 137 132 124 120 117 112 106 100 95 89 89 92
284 228 246 243 244 239 238 265 264 251 201 146 213 266 82 52 110 141 153 152 146 154 160 167 165 164 163 160 159 153 156 155 156 155 155 149 146 142 133 128 124 119 110 104 100 99 95 94 94
259 266 236 236 237 242 262 236 255 239 238 168 186 219 107 115 112 130 158 157 146 153 169 170 167 166 164 161 158 158 159 158 159 160 157 153 150 144 139 136 129 123 114 110 108 102 96 95 96
261 215 246 239 244 245 241 260 271 258 285 233 163 205 117 138 145 151 163 163 154 156 166 170 170 168 166 163 161 162 159 161 161 162 159 157 153 152 147 144 134 127 118 116 111 99 95 88 94
250 247 243 253 253 246 230 254 255 252 233 256 141 200 120 166 152 151 162 163 143 155 159 169 173 172 168 167 165 162 163 163 165 163 162 163 158 162 157 146 141 130 124 124 115 110 107 80 95
254 259 257 249 251 258 249 245 248 261 228 276 216 191 162 168 147 154 163 152 148 159 157 169 175 174 171 171 168 164 164 165 166 168 169 166 163 169 158 151 145 136 134 131 117 112 115 104 97
274 242 246 246 248 267 288 286 270 261 237 246 132 46 99 127 144 153 172 136 145 158 165 173 175 176 174 174 172 171 168 168 170 173 175 168 175 172 159 151 155 146 141 136 121 133 111 97 107
233 238 252 275 280 261 279 323 331 318 138 284 161 100 115 132 150 169 171 158 156 164 176 173 174 176 174 175 175 173 171 171 175 181 182 176 174 165 160 166 165 154 148 144 144 129 114 115 104
256 250 270 275 287 292 311 297 324 308 276 208 242 147 148 155 169 176 179 176 163 171 182 176 176 178 177 172 177 176 176 175 176 182 185 169 178 176 176 178 170 161 159 149 129 123 123 126 140
266 269 280 289 291 299 296 298 290 296 283 315 307 175 166 165 179 185 182 180 172 179 184 181 179 179 178 179 177 184 171 173 174 179 184 177 178 183 174 173 169 170 165 146 152 164 158 151 140
287 281 279 274 275 281 290 282 272 281 297 299 304 236 171 187 174 184 186 184 178 180 182 177 180 182 184 179 181 187 181 174 179 180 180 187 179 181 176 188 180 173 157 152 161 152 140 135 145
279 285 289 292 290 278 279 282 276 265 281 295 302 253 161 194 186 174 184 184 182 181 183 188 186 183 191 187 184 185 185 179 184 186 187 185 183 183 185 179 178 164 151 158 166 160 143 145 148
281 281 279 272 270 267 259 261 255 260 260 269 280 290 200 200 191 178 182 191 187 179 179 190 198 185 178 183 187 178 177 182 187 187 189 188 189 184 192 186 171 180 169 176 166 153 157 155 151
283 278 271 270 253 245 245 255 262 264 252 250 262 263 256 205 222 186 184 188 187 181 180 184 190 200 185 183 185 184 183 181 187 185 187 189 189 191 191 193 177 192 195 182 167 163 159 158 158
250 260 264 270 265 248 219 249 247 246 251 263 252 253 251 232 257 185 186 192 183 185 182 183 188 186 186 182 181 186 182 179 187 186 187 188 191 202 198 193 180 183 185 177 168 169 172 158 157
263 255 266 274 287 294 255 256 249 262 257 235 243 258 259 248 212 241 177 184 185 185 186 182 192 188 181 176 179 183 186 184 186 187 190 191 198 203 203 184 183 191 188 180 176 176 173 171 162
262 267 266 270 272 276 277 290 292 282 240 249 239 238 248 244 225 200 187 179 184 188 183 186 184 185 184 184 179 183 179 185 187 189 190 193 203 205 196 191 190 192 192 195 183 175 173 166 171
273 275 266 272 265 271 281 281 284 283 281 275 255 225 234 250 241 215 180 180 180 186 192 189 186 185 185 187 188 182 181 185 188 185 185 198 201 206 199 197 193 197 194 196 192 189 167 173 186
262 262 259 257 271 260 268 267 262 249 255 267 267 272 222 225 247 227 200 181 180 188 194 194 187 188 187 188 184 179 184 183 185 187 188 185 199 204 199 200 201 198 204 203 199 197 193 182 198
280 273 262 264 262 254 238 264 253 248 251 243 250 250 252 219 232 256 192 172 183 186 193 195 191 188 191 189 188 177 174 175 185 190 195 197 205 202 201 202 202 203 206 207 203 199 199 199 197
279 276 259 266 243 254 251 254 250 245 255 237 233 236 240 247 220 237 227 185 186 183 190 200 195 189 188 190 191 183 187 186 189 190 202 205 201 200 200 203 204 203 204 208 204 198 201 206 209
270 262 251 242 230 244 240 227 232 234 238 251 217 225 228 231 225 232 247 175 176 182 184 197 199 197 192 191 196 190 189 182 183 191 194 199 198 197 201 203 204 204 204 206 206 207 206 209 213
281 175 204 176 213 244 229 231 236 240 227 234 248 210 217 222 212 219 219 169 173 180 179 186 192 196 196 194 198 195 189 190 191 189 195 198 196 198 200 202 202 203 205 206 204 203 205 212 216
278 274 220 226 226 254 216 226 225 218 240 250 247 223 206 217 199 208 209 175 167 175 183 181 196 199 199 199 200 191 189 197 194 200 202 206 204 204 203 203 201 198 197 197 194 195 197 200 196
316 195 299 317 241 263 237 246 239 229 216 231 237 257 197 205 198 191 197 199 170 179 186 186 194 198 199 198 194 192 195 200 194 204 208 206 206 206 202 201 197 193 190 189 182 179 174 176 178
326 328 309 231 294 276 280 267 181 304 219 218 218 230 203 192 200 199 201 192 168 173 180 182 196 203 201 200 197 196 193 202 197 205 205 205 204 204 200 195 191 183 180 176 174 174 170 182 188
307 330 281 289 219 270 313 74 8 0 11 354 211 190 207 190 189 182 185 162 155 160 168 183 194 204 202 200 198 196 195 198 200 203 206 202 201 201 196 190 181 173 171 174 177 185 174 204 217
56 2 301 272 189 226 220 251 2 2 9 4 355 32 37 55 64 81 89 81 85 110 146 168 195 197 203 200 193 196 191 189 190 194 198 200 195 192 187 176 170 168 175 185 184 189 198 215 227